Regional Weather Roundup
Issued by NWS

Home | Current Version | Previous Version | Graphics & Text | Print | Product List | Glossary On
Versions: 1 2 3 4 5 6 7 8 9 10 11 12 13 14 15 16 17 18 19 20 21 22 23 24 25 26 27 28 29 30 31 32 33 34 35 36 37 38 39 40 41 42 43 44 45 46 47 48 49 50
000
ASUS43 KLSX 201107
RWRMO

WEATHER SUMMARY FOR MISSOURI
NATIONAL WEATHER SERVICE SPRINGFIELD MO
600 AM CDT SUN MAY 20 2018

NOTE: "FAIR" INDICATES FEW OR NO CLOUDS BELOW 12,000 FEET WITH NO
       SIGNIFICANT WEATHER AND/OR OBSTRUCTIONS TO VISIBILITY.
       CURRENT SKY AND/OR WEATHER CONDITIONS ARE NOT AVAILABLE FOR
       CHILLICOTHE AND FARMINGTON.

MOZ001>031-035>038-043-044-053-054-201200-
...NORTHERN AND WESTERN MISSOURI...

CITY           SKY/WX    TMP DP  RH WIND       PRES   REMARKS
KANSAS CTY INT CLOUDY    65  63  93 NE7       30.01R
KANSAS C DTWN  CLOUDY    68  61  78 N3        29.99R
LEE`S SUMMIT   CLOUDY    64  62  93 NE5       30.01R
ST JOSEPH      CLOUDY    61  60  97 NE3       30.01S
CHILLICOTHE      N/A     64  63  96 CALM      30.01S
KIRKSVILLE     CLOUDY    66  63  90 SW3       30.01F

$$
MOZ066>068-077>081-088>096-101>105-201200-
...SOUTHWEST MISSOURI...

CITY           SKY/WX    TMP DP  RH WIND       PRES   REMARKS
SPRINGFIELD    CLOUDY    69  63  81 SE9       30.00S
JOPLIN         TSTM      63  61  93 W14G44    30.11R FOG
BRANSON        CLOUDY    68  66  94 CALM      30.04R

$$
MOZ032>034-039>042-045>050-055>058-069>072-201200-
...CENTRAL MISSOURI...

CITY           SKY/WX    TMP DP  RH WIND       PRES   REMARKS
COLUMBIA       CLOUDY    64  62  93 NE7       29.99F
JEFFERSON CITY CLOUDY    65  63  93 S3        30.00F
ROLLA          CLOUDY    63  60  90 SW5       30.04F
SEDALIA        CLOUDY    65  65 100 SE6       30.00S
WHITEMAN AFB   MOCLDY    61  60  97 N3        29.96R
WARRENSBURG    CLOUDY    59  57  94 NW3       30.00R
OSAGE BEACH    MOCLDY    63  62  97 S8        30.03R

$$
MOZ051-052-059>065-201200-
...EAST CENTRAL MISSOURI...

CITY           SKY/WX    TMP DP  RH WIND       PRES   REMARKS
ST LOUIS INTL  NOT AVBL
SPIRIT OF STL  TSTM      64  63  96 W13G24    30.07R FOG
ST CHARLES     CLOUDY    65  64  97 W16       30.07R THUNDER

$$
MOZ072>076-082>087-097>100-106>115-201200-
...SOUTH CENTRAL AND SOUTHEAST MISSOURI...

CITY           SKY/WX    TMP DP  RH WIND       PRES   REMARKS
CAPE GIRARDEAU FAIR      66  63  90 NE5       30.05R
FARMINGTON     CLOUDY    63  61  93 E6        30.07R
POPLAR BLUFF   FAIR      69  66  90 S7        30.03R
WEST PLAINS    MOCLDY    66  63  90 CALM      30.06R

$$




USA.gov is the U.S. government's official web portal to all federal, state and local government web resources and services.